Location: Miles
(41.4492°N, 81.6087°W)
Time: 05:45:08
(UTC+00:00)

Courier 1B - Pass Details

Date: 16 September 2024
Orbit: 962 x 1208 km, 28.3° (Epoch: 11 October)

Event Time Altitude Azimuth Distance (km) Brightness Sun altitude
Rises 21:18:13 0° 251° (WSW) 3,924 12.1 24.1°
Reaches altitude 10° 21:21:18 10° 240° (WSW) 3,004 11.9 23.5°
Maximum altitude 21:27:33 29° 183° (S) 1,975 9.6 22.4°
Drops below altitude 10° 21:34:01 10° 127° (SE) 3,119 9.9 21.2°
Sets 21:37:17 0° 117° (ESE) 4,097 10.3 20.6°
